Simultaneous Nadir Overpasses (SNOs) Predictions

Prediction of SNOs between NOAA-15 and METOP-C Satellite Orbit:

Table of predicted SNOs for the next 14.0 days since TLE Epoch: 5/15/2020
Index Date (NOAA-15) Time (NOAA-15) Lat,Lon (NOAA-15) SZA (NOAA-15 ) Date (METOP-C) Time (METOP-C) Lat,Lon (METOP-C) SZA (METOP-C ) Distance(km) Time Diff (sec)
1 05/22/2020 12:35:00 -80.92,-153.41 117.80 05/22/2020 12:33:48 -80.91,-153.53 117.85 2.71 72
2 05/22/2020 13:25:27 80.92, 14.18 62.21 05/22/2020 13:24:27 80.93, 14.18 62.20 1.37 60
3 05/22/2020 14:16:02 -80.92,-178.48 117.80 05/22/2020 14:15:09 -80.92,-178.65 117.84 3.01 53
4 05/22/2020 15:06:30 80.92, -11.26 62.19 05/22/2020 15:05:49 80.92, -11.30 62.16 0.90 41
5 05/22/2020 15:57:05 -80.92, 156.08 117.82 05/22/2020 15:56:30 -80.93, 156.22 117.82 2.53 35
6 05/22/2020 16:47:32 80.91, -36.33 62.19 05/22/2020 16:47:10 80.93, -36.43 62.18 2.51 22
7 05/22/2020 17:38:08 -80.93, 130.65 117.85 05/22/2020 17:37:52 -80.92, 130.74 117.85 1.91 16
8 05/22/2020 18:28:35 80.92, -61.77 62.16 05/22/2020 18:28:32 80.92, -61.92 62.15 2.68 3
9 05/22/2020 19:19:10 -80.92, 105.57 117.85 05/22/2020 19:19:13 -80.93, 105.61 117.84 1.27 3
10 05/22/2020 20:09:38 80.93, -87.20 62.14 05/22/2020 20:09:53 80.93, -87.04 62.16 2.76 15
11 05/22/2020 21:00:13 -80.93, 80.14 117.87 05/22/2020 21:00:35 -80.93, 80.13 117.87 0.67 22
12 05/22/2020 21:50:41 80.94,-112.64 62.11 05/22/2020 21:51:15 80.93,-112.53 62.13 2.32 34
13 05/22/2020 22:41:15 -80.92, 55.06 117.88 05/22/2020 22:41:56 -80.94, 55.00 117.85 1.86 41
14 05/22/2020 23:31:43 80.93,-137.71 62.11 05/22/2020 23:32:36 80.94,-137.66 62.14 1.14 53
15 05/23/2020 00:22:18 -80.93, 29.63 117.90 05/23/2020 00:23:18 -80.93, 29.52 117.89 1.97 60
16 05/23/2020 01:12:46 80.94,-163.14 62.09 05/23/2020 01:13:58 80.93,-163.14 62.11 1.00 72




NCC Satellite Simultaneous Nadir Overpasses (SNOs) Prediction Service
